Flag for U.S.A. Weather past 2 weeks in Thousand Oaks, California, U.S.A.

Now
59 °F

Sunny.


Feels Like: 59 °F
Forecast: 53 / 75 °F
Wind: 5 mph from West

Location: Camarillo Airport


UV Index: 5 (Moderate)

Visibility: 9 mi


Pressure: 29.87 "Hg

Humidity: 78%

Dew point: 52 °F

Location of Thousand OaksLocation

Historic Weather in Thousand Oaks

°F

Thousand Oaks temperature yesterday

Maximum temperature yesterday: 71 °F (at 2:55 PM)
Minimum temperature yesterday: 48 °F (at 5:55 AM)
Average temperature yesterday: 60 °F

Past Weeks' High & Low Weather Summary

 TemperatureHumidityPressure
High83 °F (Apr 8, 12:55 PM)100% (Apr 10, 7:55 AM)30.16 "Hg (Apr 10, 7:55 AM)
Low42 °F (Apr 3, 4:55 AM)23% (Apr 8, 12:55 PM)29.86 "Hg (Apr 15, 5:55 PM)
Average59 °F68%30.02 "Hg
* Reported Mar 31 6:55 PM — Apr 15 6:55 PM, Thousand Oaks, Weather by CustomWeather, © 2014

Note: Actual official high and low records may vary slightly from our data, if they occured in-between our weather recording intervals... More about our weather records

Advertising

Historic Weather Conditions — Data for Previous 24 hours

 ConditionsComfort  
Time TempWeatherWind HumidityBarometerVisibility
6:55 PM
Apr 15
61 °FSunny.5 mph72%29.86 "Hg9 mi
5:55 PM65 °FSunny.8 mph54%29.86 "Hg10 mi
3:55 PM65 °FSunny.9 mph61%29.89 "Hg10 mi
2:55 PM64 °FSunny.10 mph63%29.93 "Hg10 mi
1:55 PM68 °FSunny.12 mph57%29.94 "Hg10 mi
12:55 PM66 °FSunny.6 mph59%29.96 "Hg10 mi
11:55 AM66 °FSunny.10 mph63%29.98 "Hg8 mi
10:55 AM64 °FSunny.6 mph68%30.00 "Hg6 mi
9:55 AM60 °FSunny.5 mph75%30.00 "Hg5 mi
9:02 AM57 °FPartly sunny.No wind82%29.97 "Hg4 mi
7:55 AM53 °FFog.3 mph96%30.00 "Hg2 mi
6:55 AM52 °FFog.3 mph97%29.99 "Hg1 mi
5:55 AM53 °FFog.No wind96%29.98 "Hg1 mi
4:55 AM53 °FFog.3 mph93%29.98 "Hg6 mi
3:55 AM50 °FFog.No wind96%29.99 "Hg0 mi
2:55 AM51 °FClear.5 mph89%29.99 "Hg9 mi
1:55 AM53 °FClear.7 mph80%30.00 "Hg10 mi
12:55 AM55 °FClear.No wind83%30.01 "Hg9 mi
11:55 PM
Apr 14
54 °FClear.6 mph90%30.03 "Hg7 mi
10:55 PM55 °FClear.5 mph80%30.04 "Hg10 mi
9:55 PM60 °FClear.No wind69%30.04 "Hg10 mi
Weather by CustomWeather, © 2014

See weather overview